Regional Weather Roundup
Issued by NWS

Home | Current Version | Previous Version | Graphics & Text | Print | Product List | Glossary On
Versions: 1 2 3 4 5 6 7 8 9 10 11 12 13 14 15 16 17 18 19 20 21 22 23 24 25 26 27 28
000
ASUS45 KBOU 230310
RWRCO

WEATHER ROUNDUP FOR COLORADO
NATIONAL WEATHER SERVICE DENVER/BOULDER CO
800 PM MST WED NOV 22 2017

NOTE: "FAIR" INDICATES FEW OR NO CLOUDS BELOW 12000 FEET WITH NO
SIGNIFICANT WEATHER AND/OR OBSTRUCTIONS TO VISIBILITY.

COZ001>005-013-030-031-230400-
...NORTHWEST COLORADO...

CITY           SKY/WX    TMP DP  RH WIND       PRES   REMARKS
CRAIG          FAIR      38  34  85 CALM      30.44S
HAYDEN         CLOUDY    42  37  82 S6        30.46S
MEEKER         FAIR      42  35  76 E6        30.45S
RABBIT EARS PA CLOUDY   N/A N/A N/A W9G17     30.56S FOG
STEAMBOAT SPGS CLOUDY    38  36  91 CALM      30.46R
WALDEN         CLOUDY    39  32  75 SW5       30.47S
$$

COZ006>008-011-230400-
...WEST CENTRAL VALLEYS...

CITY           SKY/WX    TMP DP  RH WIND       PRES   REMARKS
GRAND JUNCTION FAIR      45  30  55 NE3       30.40R
MONTROSE       FAIR      41  31  67 SE9       30.45R
EAGLE          CLOUDY    38  32  79 E5        30.51R
RIFLE          FAIR      39  35  86 E3        30.45R
DELTA          FAIR      47  30  52 CALM      30.42S
NUCLA          FAIR      52  30  43 CALM      30.45R
$$

COZ017>023-064>068-230400-
...SOUTHWEST COLORADO...

CITY           SKY/WX    TMP DP  RH WIND       PRES   REMARKS
DURANGO        FAIR      38  24  57 N6        30.40R
CORTEZ         FAIR      44  30  57 SE6       30.38R
PAGOSA SPRINGS FAIR      38  23  54 CALM      30.44S
TELLURIDE      FAIR      40  31  68 CALM      30.55S
WOLF CREEK PAS FAIR      36  23  60 NW15      30.65S
$$

COZ009-010-012-014-032>034-037-058>063-230400-
...CENTRAL COLORADO...

CITY           SKY/WX    TMP DP  RH WIND       PRES   REMARKS
ASPEN          MOCLDY    38  32  79 S5        30.50R
BUENA VISTA    FAIR      40  33  74 CALM      30.46S
COPPER MTN     SNOW      34  32  93 MISG      30.62R VSB 1/4
BERTHOUD PASS  CLOUDY    28  18  64 NW37G49   30.54R WCI  11
COTTONWOOD PAS FAIR      45  34  65 NW6       30.52S
GUNNISON       FAIR      37  31  78 NE6       30.49R
KREMMLING      CLOUDY    43  36  75 SE3       30.49R
LEADVILLE      MOCLDY    35  31  85 NW10      30.52F WCI  27
MONARCH PASS   FAIR      32  28  86 NW22G30   30.72R WCI  19
SALIDA         FAIR      47  34  60 CALM      30.50R
SUNLIGHT       FAIR      34  30  86 N5        30.64S WCI  30
WILKERSON PASS FAIR      34  28  80 N13G24    30.57R WCI  25
$$

COZ069>075-230400-
...SAN LUIS VALLEY/SANGRE DE CRISTO MOUNTAINS...

CITY           SKY/WX    TMP DP  RH WIND       PRES   REMARKS
ALAMOSA        FAIR      40  29  64 NE8       30.42R
DEL NORTE      FAIR      44  29  55 W7        30.44F
LA VETA PASS   FAIR      39  28  65 MISG        N/A
SAGUACHE       FAIR      46  32  57 NW12G21   30.45S
$$

COZ035-036-038>040-230400-
...NORTHERN COLORADO FRONT RANGE...

CITY           SKY/WX    TMP DP  RH WIND       PRES   REMARKS
DENVER INTL AP FAIR      52  34  50 SW10      30.26S
DMNS CITY PARK   N/A     54  34  47 SW3G13    30.26S
AURORA         PTCLDY    52  35  52 SW5       30.28S
FRONT RANGE AP MOCLDY    54  37  54 SW7       30.27F
ERIE MUNI ARPT FAIR      49  34  54 SW5       30.29F
BOULDER MUN AP FAIR      59  34  38 SW8       30.23F
CENTENNIAL     FAIR      55  36  48 NW9       30.28F
BROOMFIELD     PTCLDY    57  36  44 W17       30.27F
FORT COLLINS   FAIR      53  36  52 SE6       30.23S
LONGMONT       FAIR      54  36  51 CALM      30.25R
$$

COZ041-046-047-076>085-087-088-230400-
...PIKES PEAK/PALMER DIVIDE AND SOUTHERN FOOTHILLS...

CITY           SKY/WX    TMP DP  RH WIND       PRES   REMARKS
COLO. SPRINGS  FAIR      47  32  56 N7        30.32R
A. F. ACADEMY  FAIR      40  31  69 NE5       30.32S
SCHRIEVER AFB  FAIR      50  32  50 N6        30.31S
CHEYENNE MTN   FAIR      52  30  43 NW3       30.29S
ELLICOTT         N/A    N/A N/A N/A E3        30.30R
FALCON         FAIR      45  32  61 NW9       30.34S
FORT CARSON    FAIR      46  29  53 N5        30.28S
LIMON          FAIR      41  32  70 CALM      30.27R
MONUMENT HILL  FAIR      43  32  65 W5        30.36R
CANON CITY     FAIR      55  34  44 CALM      30.28S
WALSENBURG     FAIR      55  32  41 W9        30.30S
TRINIDAD       FAIR      44  29  55 W12       30.29R
$$

COZ042>045-048>051-090-091-230400-
...NORTHEAST COLORADO...

CITY           SKY/WX    TMP DP  RH WIND       PRES   REMARKS
GREELEY ARPT   FAIR      44  35  70 S5        30.24R
AKRON          FAIR      53  36  52 NW10      30.21S
BURLINGTON     FAIR      48  35  60 W9        30.19S
WRAY           NOT AVBL
YUMA           FAIR      46  36  66 W8        30.18S
STERLING       FAIR      54  39  58 NW14      30.16S
HOLYOKE        FAIR      46  34  61 W9        30.16S
FORT MORGAN    FAIR      56  35  45 NW12      30.22S
$$

COZ086-089-092>099-230400-
...SOUTHEAST COLORADO...

CITY           SKY/WX    TMP DP  RH WIND       PRES   REMARKS
PUEBLO         FAIR      51  29  42 NW3       30.24R
LA JUNTA       FAIR      51  30  44 N5        30.21S
LAMAR          FAIR      44  26  49 S8        30.18R
SPRINGFIELD      N/A     43  28  55 W6        30.23S
$$




USA.gov is the U.S. government's official web portal to all federal, state and local government web resources and services.